Naples, FL (34101)

1:02 PM EST on February 14, 2016 (GMT -0500)
Lakewood | | Change Station
CLOSE
Current Station
Personal Weather Station
Location: Naples, FL
Elevation: 20 ft
Nearby Weather Stations

Elev 20 ft 26.14 °N, 81.75 °W | Updated 2 seconds ago

Partly Cloudy
Partly Cloudy
75.2 °F
Feels Like 78 °F
N
0.2
Wind Variable Wind from NW
Gusts 2.5 mph

Today
High -- | Low -- °F
--% Chance of Precip.
Yesterday
High -- | Low -- °F
Precip. -- in
Pressure 30.19 in
Visibility 10.0 miles
Clouds Few 3500 ft
Heat Index 78 °F
Dew Point 50 °F
Humidity 42%
Rainfall 0.00 in
Snow Depth Not available.
7:03 AM 6:19 PM
Waxing Crescent, 44% visible
METAR KAPF 141753Z 08012G21KT 10SM FEW035 22/11 A3019 RMK AO2 SLP221 T02220106 10222 20100 58016
Pressure 30.19 in
Visibility 10.0 miles
Clouds Few 3500 ft
Heat Index 78 °F
Dew Point 50 °F
Humidity 42%
Rainfall 0.00 in
Snow Depth Not available.
7:03 AM 6:19 PM
Waxing Crescent, 44% visible
METAR KAPF 141753Z 08012G21KT 10SM FEW035 22/11 A3019 RMK AO2 SLP221 T02220106 10222 20100 58016

10-Day Weather Forecast

Almanac

Astronomy

Feb. 14, 2016 Rise Set
Actual Time
Civil Twilight
Nautical Twilight
Astronomical Twilight
Moon
Length of Visible Light
Length of Day
Tomorrow will be .
, % of the Moon is Illuminated

Today's Extremes

State Highs State Lows

Community

WunderPhotos

Upload Photos

1,892,866 photos uploaded!

WunderBlog® & News

Nearby

Air Quality

  Air Quality AQ Index Pollutant
Not available.

Snow Depth

Station Depth Elevation

Earthquake Activity

City Distance Mag. Time & Date
Minimum magnitude displayed is 2.5.

Coastal Water Temperatures

Place Temperature

Stations

Nearby Weather Stations

Station Location Temp. Windchill Dew Point Humidity Wind Precip. Elev Updated Type
                   

Watches & Warnings

There are currently no watches in effect.